User: anonymous
Location: Unspecified
(0.0000°N, 0.0000°E)
Time: 12:13:37
(UTC+00:00)
Language:

CANX 3B (BRITE-ASRA) - Orbit

View from above orbital plane
View from above orbital plane
View from above satellite
View from above satellite

Ground track
Ground track

The orbit data is extracted from the following two-line orbital elements,

1 39091U 13009F   14264.04102610  .00000111  00000-0  54756-4 0  4782
2 39091 098.6164 098.4319 0011222 035.2890 324.9042 14.34726655 82071
Epoch (UTC): 21 September 2014 00:59:04
Eccentricity: 0.0011222
inclination: 98.6164°
perigee height: 768 km
apogee height: 784 km
right ascension of ascending node: 98.4319°
argument of perigee: 35.2890°
revolutions per day: 14.34726655
mean anomaly at epoch: 324.9042°
orbit number at epoch: 8207

The dashed part of the orbit path shows where the satellite is in the earth's shadow,  

DLR